AAL1310 WMKI-WMKL

Flight info

Callsign AAL1310
Flight time 0h 33m
Altitude 20000
Route AGRES2B VPG W525 KAPKO KAPKO1E
Aircraft B738/M-SDE2E3FGHIRWXY/LB1

Departure

Time 2026-04-30 13:00
Airport Sultan Azlan Shah Airport (WMKI)

Arrival

Time 2026-04-30 13:33
Airport Langkawi International Airport (WMKL)
Time Latitude Longitude Altitude Speed Heading
2026-04-30 12:43 4.57076 101.09804 131 ft 0 kts 225°
2026-04-30 12:56 4.57069 101.09779 127 ft 5 kts 282°
2026-04-30 12:57 4.57097 101.09748 128 ft 8 kts 315°
2026-04-30 12:57 4.57142 101.09700 131 ft 12 kts 312°
2026-04-30 12:57 4.57165 101.09673 129 ft 0 kts 312°
2026-04-30 12:58 4.57178 101.09659 131 ft 5 kts 312°
2026-04-30 12:58 4.57216 101.09617 132 ft 10 kts 309°
2026-04-30 12:59 4.57193 101.09555 132 ft 4 kts 221°
2026-04-30 12:59 4.57193 101.09554 132 ft 0 kts 221°
2026-04-30 12:59 4.57046 101.09425 129 ft 72 kts 221°
2026-04-30 12:59 4.56453 101.08904 127 ft 154 kts 220°
2026-04-30 13:00 4.55562 101.08114 694 ft 177 kts 221°
2026-04-30 13:00 4.54621 101.07277 1751 ft 184 kts 221°
2026-04-30 13:00 4.53629 101.06415 2591 ft 197 kts 221°
2026-04-30 13:00 4.52516 101.05443 2913 ft 226 kts 221°
2026-04-30 13:01 4.51271 101.04352 3249 ft 247 kts 221°
2026-04-30 13:01 4.49908 101.03154 3555 ft 271 kts 221°
2026-04-30 13:01 4.48464 101.01883 4331 ft 277 kts 220°
2026-04-30 13:01 4.47014 101.00605 5256 ft 281 kts 220°
2026-04-30 13:02 4.45543 100.99310 5742 ft 287 kts 220°
2026-04-30 13:02 4.44064 100.97916 6227 ft 293 kts 232°
2026-04-30 13:02 4.43209 100.96100 7092 ft 294 kts 258°
2026-04-30 13:02 4.43046 100.94058 7966 ft 295 kts 270°
2026-04-30 13:03 4.43078 100.91983 8760 ft 300 kts 272°
2026-04-30 13:03 4.43142 100.89873 9584 ft 304 kts 272°
2026-04-30 13:03 4.43205 100.87741 10337 ft 310 kts 272°
2026-04-30 13:03 4.43262 100.85507 10586 ft 334 kts 271°
2026-04-30 13:04 4.43313 100.83113 10912 ft 351 kts 271°
2026-04-30 13:04 4.43358 100.80648 11535 ft 357 kts 271°
2026-04-30 13:04 4.43399 100.78136 12256 ft 360 kts 271°
2026-04-30 13:04 4.43439 100.75637 12957 ft 364 kts 271°
2026-04-30 13:05 4.43479 100.73085 13633 ft 368 kts 271°
2026-04-30 13:05 4.43519 100.70505 14235 ft 372 kts 271°
2026-04-30 13:05 4.43595 100.67897 14852 ft 375 kts 277°
2026-04-30 13:06 4.45925 100.63310 16073 ft 377 kts 319°
2026-04-30 13:06 4.48100 100.61856 16666 ft 377 kts 335°
2026-04-30 13:06 4.50488 100.60745 17284 ft 380 kts 338°
2026-04-30 13:06 4.52915 100.59683 17819 ft 383 kts 338°
2026-04-30 13:07 4.55382 100.58618 17865 ft 390 kts 338°
2026-04-30 13:07 4.57886 100.57532 18064 ft 401 kts 338°
2026-04-30 13:07 4.60452 100.56406 18596 ft 402 kts 338°
2026-04-30 13:07 4.63000 100.55276 19228 ft 400 kts 338°
2026-04-30 13:08 4.65533 100.54146 19693 ft 399 kts 338°
2026-04-30 13:08 4.68072 100.53008 19865 ft 398 kts 338°
2026-04-30 13:08 4.70594 100.51876 19856 ft 397 kts 338°
2026-04-30 13:08 4.73108 100.50746 19871 ft 396 kts 338°
2026-04-30 13:09 4.75620 100.49616 19876 ft 396 kts 338°
2026-04-30 13:09 4.78140 100.48484 19873 ft 396 kts 338°
2026-04-30 13:09 4.80656 100.47353 19871 ft 396 kts 338°
2026-04-30 13:09 4.83166 100.46225 19870 ft 396 kts 338°
2026-04-30 13:10 4.85683 100.45094 19863 ft 396 kts 338°
2026-04-30 13:10 4.88198 100.43963 19865 ft 396 kts 338°
2026-04-30 13:10 4.90684 100.42845 19863 ft 396 kts 338°
2026-04-30 13:10 4.93200 100.41714 19863 ft 396 kts 338°
2026-04-30 13:11 4.95719 100.40581 19862 ft 396 kts 338°
2026-04-30 13:11 4.98236 100.39449 19858 ft 396 kts 338°
2026-04-30 13:11 5.00761 100.38314 19854 ft 396 kts 338°
2026-04-30 13:11 5.03275 100.37183 19853 ft 396 kts 338°
2026-04-30 13:12 5.05805 100.36045 19841 ft 396 kts 338°
2026-04-30 13:12 5.08303 100.34921 19597 ft 389 kts 338°
2026-04-30 13:12 5.10717 100.33834 19365 ft 381 kts 338°
2026-04-30 13:13 5.15464 100.31697 18903 ft 367 kts 338°
2026-04-30 13:13 5.17780 100.30655 18678 ft 363 kts 338°
2026-04-30 13:13 5.22327 100.28609 18234 ft 358 kts 338°
2026-04-30 13:14 5.24621 100.27577 18006 ft 361 kts 338°
2026-04-30 13:14 5.26903 100.26551 17757 ft 362 kts 338°
2026-04-30 13:14 5.31469 100.24427 17252 ft 358 kts 336°
2026-04-30 13:15 5.33712 100.23348 16993 ft 356 kts 336°
2026-04-30 13:15 5.38138 100.21213 16457 ft 353 kts 336°
2026-04-30 13:15 5.40344 100.20151 16109 ft 350 kts 336°
2026-04-30 13:16 5.42535 100.19098 15738 ft 348 kts 336°
2026-04-30 13:16 5.44711 100.18055 15362 ft 346 kts 336°
2026-04-30 13:16 5.46174 100.17353 15118 ft 344 kts 336°
2026-04-30 13:17 5.51182 100.14953 14238 ft 342 kts 336°
2026-04-30 13:17 5.52599 100.14274 13982 ft 341 kts 336°
2026-04-30 13:17 5.56893 100.12216 13176 ft 340 kts 336°
2026-04-30 13:18 5.58987 100.11128 12645 ft 343 kts 328°
2026-04-30 13:18 5.63330 100.07661 11710 ft 340 kts 322°
2026-04-30 13:18 5.64556 100.06637 11457 ft 338 kts 322°
2026-04-30 13:19 5.66361 100.05138 11096 ft 336 kts 322°
2026-04-30 13:19 5.68166 100.03650 10722 ft 334 kts 322°
2026-04-30 13:19 5.69954 100.02186 10460 ft 325 kts 322°
2026-04-30 13:19 5.71644 100.00807 10281 ft 309 kts 323°
2026-04-30 13:20 5.73271 99.99484 10143 ft 294 kts 323°
2026-04-30 13:20 5.74842 99.98209 10005 ft 287 kts 323°
2026-04-30 13:20 5.76395 99.96953 9723 ft 286 kts 323°
2026-04-30 13:20 5.77945 99.95699 9428 ft 285 kts 323°
2026-04-30 13:21 5.79485 99.94454 9124 ft 284 kts 323°
2026-04-30 13:21 5.81025 99.93208 8827 ft 283 kts 323°
2026-04-30 13:21 5.82560 99.91967 8533 ft 283 kts 323°
2026-04-30 13:22 5.85616 99.89495 7944 ft 281 kts 323°
2026-04-30 13:22 5.87133 99.88267 7657 ft 280 kts 323°
2026-04-30 13:22 5.90167 99.85812 7073 ft 279 kts 323°
2026-04-30 13:23 5.91678 99.84589 6769 ft 279 kts 323°
2026-04-30 13:23 5.94677 99.82162 6181 ft 278 kts 323°
2026-04-30 13:24 5.97672 99.79737 5684 ft 268 kts 323°
2026-04-30 13:24 6.00354 99.77559 5439 ft 230 kts 324°
2026-04-30 13:25 6.02706 99.75654 5028 ft 205 kts 324°
2026-04-30 13:25 6.04785 99.73970 4628 ft 184 kts 325°
2026-04-30 13:26 6.07726 99.71592 3943 ft 182 kts 324°
2026-04-30 13:26 6.09733 99.69969 3766 ft 185 kts 324°
2026-04-30 13:27 6.11750 99.68336 3569 ft 189 kts 324°
2026-04-30 13:28 6.14781 99.65879 3005 ft 185 kts 323°
2026-04-30 13:28 6.16784 99.64258 2607 ft 185 kts 322°
2026-04-30 13:28 6.17815 99.63505 2375 ft 179 kts 338°
2026-04-30 13:29 6.19992 99.64050 2190 ft 168 kts 30°
2026-04-30 13:29 6.21967 99.65301 2093 ft 165 kts 34°
2026-04-30 13:30 6.24805 99.67245 1631 ft 159 kts 34°
2026-04-30 13:31 6.26551 99.68443 1246 ft 151 kts 34°
2026-04-30 13:31 6.29168 99.70244 649 ft 150 kts 35°
2026-04-30 13:32 6.30882 99.71426 344 ft 149 kts 37°
2026-04-30 13:32 6.32585 99.72598 41 ft 139 kts 37°
2026-04-30 13:33 6.33821 99.73449 35 ft 63 kts 36°
2026-04-30 13:33 6.34054 99.73451 34 ft 14 kts 303°
2026-04-30 13:34 6.34108 99.73376 35 ft 8 kts 319°
2026-04-30 13:34 6.34173 99.73317 35 ft 0 kts 304°